| time (UTC) | temp C | wind direction | speed KPH | gust KPH | rain 1hr cm | rain 24hr cm | rain mn cm | humidity % | barometer mb |
| 20260508220003 | 16 | 11 | 0.0 | 14.5 | 0.00 | 0.00 | 0.00 | 51 | 1007.1 |
| 20260508214503 | 16 | 321 | 1.6 | 9.7 | 0.00 | 0.00 | 0.00 | 51 | 1007.1 |
| 20260508213003 | 16 | 355 | 1.6 | 9.7 | 0.00 | 0.00 | 0.00 | 51 | 1007.2 |
| 20260508211507 | 16 | 339 | 1.6 | 14.5 | 0.00 | 0.00 | 0.00 | 50 | 1007.3 |
| 20260508210004 | 16 | 347 | 1.6 | 8.0 | 0.00 | 0.00 | 0.00 | 52 | 1007.4 |
| 20260508204505 | 18 | 318 | 1.6 | 12.9 | 0.00 | 0.00 | 0.00 | 47 | 1007.5 |
| 20260508203006 | 16 | 97 | 1.6 | 9.7 | 0.00 | 0.00 | 0.00 | 50 | 1007.6 |
| 20260508201504 | 17 | 98 | 3.2 | 14.5 | 0.00 | 0.00 | 0.00 | 51 | 1007.9 |
| 20260508200004 | 17 | 70 | 3.2 | 14.5 | 0.00 | 0.00 | 0.00 | 52 | 1008.1 |
| 20260508194503 | 16 | 14 | 1.6 | 6.4 | 0.00 | 0.00 | 0.00 | 51 | 1008.3 |
| 20260508193008 | 16 | 76 | 4.8 | 14.5 | 0.00 | 0.00 | 0.00 | 57 | 1008.6 |
| 20260508191503 | 15 | 296 | 6.4 | 16.1 | 0.00 | 0.00 | 0.00 | 54 | 1008.7 |
| 20260508190004 | 16 | 299 | 4.8 | 16.1 | 0.00 | 0.00 | 0.00 | 52 | 1008.9 |
| 20260508184506 | 17 | 303 | 6.4 | 14.5 | 0.00 | 0.00 | 0.00 | 50 | 1009.2 |
| 20260508183003 | 16 | 326 | 3.2 | 20.9 | 0.00 | 0.00 | 0.00 | 55 | 1009.2 |
| 20260508181503 | 15 | 288 | 3.2 | 11.3 | 0.00 | 0.00 | 0.00 | 53 | 1009.5 |
| 20260508180004 | 16 | 16 | 4.8 | 9.7 | 0.00 | 0.00 | 0.00 | 49 | 1009.6 |
| 20260508174506 | 15 | 306 | 1.6 | 12.9 | 0.00 | 0.00 | 0.00 | 50 | 1009.9 |
| 20260508173002 | 16 | 319 | 4.8 | 16.1 | 0.00 | 0.00 | 0.00 | 50 | 1010.3 |
| 20260508171508 | 15 | 5 | 4.8 | 9.7 | 0.00 | 0.00 | 0.00 | 55 | 1010.5 |
| 20260508170003 | 15 | 277 | 1.6 | 6.4 | 0.00 | 0.00 | 0.00 | 55 | 1010.7 |
| 20260508164503 | 15 | 127 | 3.2 | 14.5 | 0.00 | 0.00 | 0.00 | 53 | 1011.0 |
| 20260508163003 | 15 | 272 | 3.2 | 9.7 | 0.00 | 0.00 | 0.00 | 50 | 1011.2 |
| 20260508161504 | 15 | 79 | 1.6 | 12.9 | 0.00 | 0.00 | 0.00 | 57 | 1011.5 |
| 20260508160004 | 13 | 290 | 1.6 | 12.9 | 0.00 | 0.00 | 0.00 | 52 | 1011.4 |
| 20260508154502 | 13 | 131 | 3.2 | 9.7 | 0.00 | 0.00 | 0.00 | 58 | 1011.5 |
| 20260508153003 | 13 | 188 | 1.6 | 11.3 | 0.00 | 0.00 | 0.00 | 56 | 1011.4 |
| 20260508151502 | 13 | 342 | 1.6 | 8.0 | 0.00 | 0.00 | 0.00 | 64 | 1011.7 |
| 20260508150003 | 12 | 131 | 0.0 | 6.4 | 0.00 | 0.00 | 0.00 | 64 | 1011.8 |
| 20260508144559 | 12 | 331 | 1.6 | 6.4 | 0.00 | 0.00 | 0.00 | 66 | 1011.8 |
| 20260508143002 | 12 | 184 | 0.0 | 8.0 | 0.00 | 0.00 | 0.00 | 67 | 1012.1 |
| 20260508141505 | 11 | 78 | 3.2 | 6.4 | 0.00 | 0.00 | 0.00 | 67 | 1012.2 |
| 20260508140007 | 11 | 105 | 1.6 | 6.4 | 0.00 | 0.00 | 0.00 | 74 | 1012.1 |
| 20260508134503 | 10 | 69 | 0.0 | 8.0 | 0.00 | 0.00 | 0.00 | 76 | 1012.3 |
| 20260508133002 | 10 | 182 | 3.2 | 6.4 | 0.00 | 0.00 | 0.00 | 75 | 1012.5 |
| 20260508131504 | 9 | 333 | 1.6 | 4.8 | 0.00 | 0.00 | 0.00 | 76 | 1012.5 |
| 20260508130002 | 9 | 82 | 0.0 | 3.2 | 0.00 | 0.00 | 0.00 | 80 | 1012.4 |
| 20260508124504 | 8 | 92 | 0.0 | 4.8 | 0.00 | 0.00 | 0.00 | 81 | 1012.4 |
| 20260508123005 | 8 | 94 | 0.0 | 4.8 | 0.00 | 0.00 | 0.00 | 82 | 1012.2 |
| 20260508121504 | 7 | 311 | 0.0 | 4.8 | 0.00 | 0.00 | 0.00 | 84 | 1012.1 |
| 20260508120004 | 6 | 311 | 0.0 | 1.6 | 0.00 | 0.00 | 0.00 | 86 | 1012.1 |
| 20260508114503 | 6 | 311 | 0.0 | 0.0 | 0.00 | 0.00 | 0.00 | 91 | 1012.1 |
| 20260508113006 | 5 | 311 | 0.0 | 0.0 | 0.00 | 0.00 | 0.00 | 91 | 1011.8 |
| 20260508111504 | 4 | 311 | 0.0 | 0.0 | 0.00 | 0.00 | 0.00 | 90 | 1011.6 |
| 20260508110004 | 3 | 311 | 0.0 | 0.0 | 0.00 | 0.00 | 0.00 | 89 | 1011.4 |
| 20260508104503 | 3 | 311 | 0.0 | 0.0 | 0.00 | 0.00 | 0.00 | 87 | 1011.4 |
| 20260508103008 | 3 | 311 | 0.0 | 0.0 | 0.00 | 0.00 | 0.00 | 86 | 1011.2 |
| 20260508101504 | 3 | 311 | 0.0 | 0.0 | 0.00 | 0.00 | 0.00 | 86 | 1011.2 |
| 20260508100006 | 4 | 311 | 0.0 | 0.0 | 0.00 | 0.00 | 0.00 | 86 | 1011.2 |
| 20260508094606 | 4 | 311 | 0.0 | 0.0 | 0.00 | 0.00 | 0.00 | 85 | 1011.2 |
| 20260508093004 | 4 | 311 | 0.0 | 0.0 | 0.00 | 0.00 | 0.00 | 84 | 1011.3 |
| 20260508091503 | 5 | 311 | 0.0 | 0.0 | 0.00 | 0.00 | 0.00 | 84 | 1011.2 |
| 20260508090004 | 5 | 311 | 0.0 | 0.0 | 0.00 | 0.00 | 0.00 | 85 | 1011.3 |
| 20260508084503 | 5 | 311 | 0.0 | 0.0 | 0.00 | 0.00 | 0.00 | 85 | 1011.3 |
| 20260508083003 | 5 | 311 | 0.0 | 0.0 | 0.00 | 0.00 | 0.00 | 85 | 1011.4 |
| 20260508081513 | 5 | 311 | 0.0 | 3.2 | 0.00 | 0.00 | 0.00 | 85 | 1011.4 |
| 20260508080004 | 5 | 311 | 0.0 | 0.0 | 0.00 | 0.00 | 0.00 | 85 | 1011.9 |
| 20260508074504 | 5 | 311 | 0.0 | 0.0 | 0.00 | 0.00 | 0.00 | 85 | 1011.8 |
| 20260508073003 | 5 | 311 | 0.0 | 0.0 | 0.00 | 0.00 | 0.00 | 84 | 1011.8 |
| 20260508071624 | 5 | 311 | 0.0 | 0.0 | 0.00 | 0.00 | 0.00 | 84 | 1011.6 |
| 20260508070004 | 5 | 311 | 0.0 | 0.0 | 0.00 | 0.00 | 0.00 | 83 | 1011.8 |
| 20260508064506 | 5 | 311 | 0.0 | 0.0 | 0.00 | 0.00 | 0.00 | 83 | 1011.8 |
| 20260508063003 | 5 | 311 | 0.0 | 0.0 | 0.00 | 0.00 | 0.00 | 82 | 1011.8 |
| 20260508061503 | 5 | 311 | 0.0 | 0.0 | 0.00 | 0.00 | 0.00 | 82 | 1011.8 |
| 20260508060004 | 5 | 311 | 0.0 | 0.0 | 0.00 | 0.00 | 0.00 | 81 | 1011.7 |
| 20260508054503 | 6 | 311 | 0.0 | 0.0 | 0.00 | 0.00 | 0.00 | 80 | 1012.0 |
| 20260508053003 | 6 | 311 | 0.0 | 0.0 | 0.00 | 0.00 | 0.00 | 78 | 1012.0 |
| 20260508051503 | 6 | 311 | 0.0 | 0.0 | 0.00 | 0.00 | 0.00 | 76 | 1012.1 |
| 20260508050005 | 6 | 311 | 0.0 | 0.0 | 0.00 | 0.00 | 0.00 | 74 | 1012.1 |
| 20260508044503 | 7 | 311 | 0.0 | 0.0 | 0.00 | 0.00 | 0.00 | 73 | 1012.0 |
| 20260508043003 | 7 | 311 | 0.0 | 0.0 | 0.00 | 0.00 | 0.00 | 72 | 1012.0 |
| 20260508041504 | 8 | 311 | 0.0 | 0.0 | 0.00 | 0.00 | 0.00 | 70 | 1012.0 |
| 20260508040007 | 8 | 311 | 0.0 | 0.0 | 0.00 | 0.00 | 0.00 | 69 | 1012.1 |
| 20260508034504 | 8 | 311 | 0.0 | 3.2 | 0.00 | 0.00 | 0.00 | 69 | 1012.1 |
| 20260508033002 | 9 | 331 | 0.0 | 1.6 | 0.00 | 0.00 | 0.00 | 68 | 1012.2 |
| 20260508031503 | 9 | 302 | 0.0 | 0.0 | 0.00 | 0.00 | 0.00 | 68 | 1012.3 |
| 20260508030005 | 9 | 302 | 0.0 | 4.8 | 0.00 | 0.00 | 0.00 | 67 | 1012.4 |
| 20260508024504 | 10 | 355 | 0.0 | 4.8 | 0.00 | 0.00 | 0.00 | 66 | 1012.4 |
| 20260508023006 | 10 | 309 | 0.0 | 0.0 | 0.00 | 0.00 | 0.00 | 66 | 1012.4 |
| 20260508021504 | 10 | 323 | 0.0 | 12.9 | 0.00 | 0.00 | 0.00 | 64 | 1012.3 |
| 20260508020006 | 10 | 169 | 0.0 | 3.2 | 0.00 | 0.00 | 0.00 | 63 | 1012.2 |
| 20260508014504 | 10 | 119 | 1.6 | 4.8 | 0.00 | 0.00 | 0.00 | 61 | 1012.1 |
| 20260508013001 | 9 | 212 | 0.0 | 17.7 | 0.00 | 0.00 | 0.00 | 59 | 1012.0 |
| 20260508011506 | 10 | 57 | 0.0 | 0.0 | 0.00 | 0.00 | 0.00 | 61 | 1011.4 |
| 20260508010005 | 10 | 57 | 0.0 | 0.0 | 0.00 | 0.00 | 0.00 | 57 | 1011.3 |
| 20260508004504 | 11 | 57 | 0.0 | 0.0 | 0.00 | 0.00 | 0.00 | 52 | 1011.2 |
| 20260508003005 | 11 | 57 | 0.0 | 0.0 | 0.00 | 0.00 | 0.00 | 49 | 1011.2 |
| 20260508001512 | 11 | 57 | 0.0 | 4.8 | 0.00 | 0.00 | 0.00 | 47 | 1011.1 |
| 20260508000006 | 12 | 66 | 0.0 | 8.0 | 0.00 | 0.00 | 0.00 | 46 | 1011.1 |
| 20260507234505 | 12 | 73 | 0.0 | 11.3 | 0.00 | 0.00 | 0.00 | 45 | 1011.1 |
| 20260507233009 | 12 | 76 | 1.6 | 9.7 | 0.00 | 0.00 | 0.00 | 46 | 1011.2 |
| 20260507231510 | 12 | 68 | 0.0 | 9.7 | 0.00 | 0.00 | 0.00 | 48 | 1011.2 |
| 20260507230018 | 12 | 69 | 3.2 | 12.9 | 0.00 | 0.00 | 0.00 | 46 | 1011.2 |
| 20260507224506 | 12 | 42 | 4.8 | 14.5 | 0.00 | 0.00 | 0.00 | 41 | 1011.4 |
| 20260507223004 | 12 | 130 | 1.6 | 6.4 | 0.00 | 0.00 | 0.00 | 46 | 1011.3 |
| 20260507221504 | 12 | 78 | 4.8 | 17.7 | 0.00 | 0.00 | 0.00 | 41 | 1011.5 |